TimeMST,TemperatureF,Dew PointF,Humidity,Sea Level PressureIn,VisibilityMPH,Wind Direction,Wind SpeedMPH,Gust SpeedMPH,PrecipitationIn,Events,Conditions,WindDirDegrees,DateUTC
12:53 AM,25.0,15.1,66,30.01,10.0,NW,8.1,-,N/A,,Clear,320,2013-02-13 07:53:00
1:53 AM,24.1,15.1,69,30.02,10.0,WNW,9.2,-,N/A,,Clear,300,2013-02-13 08:53:00
2:53 AM,16.0,10.0,77,30.02,10.0,Calm,Calm,-,N/A,,Clear,0,2013-02-13 09:53:00
3:53 AM,18.0,12.9,81,29.99,10.0,Calm,Calm,-,N/A,,Clear,0,2013-02-13 10:53:00
4:53 AM,18.0,12.0,78,30.00,10.0,NNW,3.5,-,N/A,,Clear,340,2013-02-13 11:53:00
5:53 AM,19.0,14.0,81,30.01,10.0,WNW,5.8,-,N/A,,Clear,290,2013-02-13 12:53:00
6:53 AM,21.2,14.0,74,29.90,10.0,NNW,5.8,-,N/A,,Clear,330,2013-02-13 13:53:00
7:53 AM,27.0,18.0,69,30.00,10.0,WNW,9.2,-,N/A,,Clear,290,2013-02-13 14:53:00
8:53 AM,36.0,21.0,55,29.98,10.0,WNW,15.0,21.9,N/A,,Clear,290,2013-02-13 15:53:00
9:53 AM,44.1,19.9,38,29.97,10.0,WNW,27.6,36.8,N/A,,Partly Cloudy,290,2013-02-13 16:53:00
10:53 AM,44.1,19.9,38,29.96,10.0,WNW,25.3,35.7,N/A,,Scattered Clouds,290,2013-02-13 17:53:00
11:53 AM,48.9,21.0,33,29.92,10.0,WNW,23.0,29.9,N/A,,Scattered Clouds,300,2013-02-13 18:53:00
12:53 PM,51.1,-9999,N/A,29.89,10.0,West,21.9,32.2,N/A,,Clear,280,2013-02-13 19:53:00
1:53 PM,48.9,21.0,33,29.88,10.0,West,27.6,39.1,N/A,,Clear,280,2013-02-13 20:53:00
2:53 PM,48.0,21.0,34,29.90,10.0,West,29.9,41.4,N/A,,Clear,270,2013-02-13 21:53:00
3:53 PM,46.9,21.0,36,29.92,10.0,West,23.0,35.7,N/A,,Mostly Cloudy,280,2013-02-13 22:53:00
4:53 PM,43.0,21.0,42,29.94,10.0,West,20.7,31.1,N/A,,Clear,280,2013-02-13 23:53:00
5:53 PM,41.0,21.0,45,29.96,10.0,WNW,15.0,-,N/A,,Scattered Clouds,290,2013-02-14 00:53:00
6:53 PM,37.9,30.9,76,30.02,10.0,NNW,17.3,28.8,0.00,,Overcast,330,2013-02-14 01:53:00
7:53 PM,35.1,27.0,72,30.03,10.0,NW,8.1,-,N/A,,Overcast,310,2013-02-14 02:53:00
8:53 PM,34.0,27.0,75,30.04,10.0,West,6.9,-,N/A,,Overcast,260,2013-02-14 03:53:00
9:53 PM,34.0,27.0,75,30.03,10.0,West,9.2,-,N/A,,Overcast,280,2013-02-14 04:53:00
10:53 PM,36.0,23.0,59,30.03,10.0,WNW,11.5,-,N/A,,Overcast,290,2013-02-14 05:53:00
11:53 PM,34.0,25.0,70,30.02,10.0,West,11.5,-,0.00,,Overcast,280,2013-02-14 06:53:00